Regional Weather Roundup
Issued by NWS

Home | Current Version | Previous Version | Graphics & Text | Print | Product List | Glossary On
Versions: 1 2 3 4 5 6 7 8 9 10 11 12 13 14 15 16 17 18 19 20 21 22 23 24 25 26 27 28 29 30 31 32 33 34 35 36 37 38 39 40 41 42 43 44 45 46 47 48 49 50
000
ASUS45 KBOI 201310
RWRID
WEATHER ROUNDUP FOR IDAHO
NATIONAL WEATHER SERVICE BOISE ID
600 AM MST SAT DEC 20 2014

NOTE: "FAIR" INDICATES FEW OR NO CLOUDS BELOW 12000 FEET
WITH NO SIGNIFICANT WEATHER AND/OR OBSTRUCTIONS TO VISIBILITY

IDZ012-014-201400-
SOUTHWEST IDAHO


CITY           SKY/WX    TMP DP  RH WIND       PRES   REMARKS
BOISE          CLOUDY    41  34  76 E8        30.00F
CALDWELL       CLOUDY    39  30  70 E10       30.03S WCI  32
MOUNTAIN HOME  LGT RAIN  36  34  93 E14       30.02F WCI  27
$$

IDZ016-017-201400-
SOUTHCENTRAL IDAHO


CITY           SKY/WX    TMP DP  RH WIND       PRES   REMARKS
BURLEY         CLOUDY    37  32  82 S7        30.05F WCI  32
JEROME         CLOUDY    35  32  88 E5        30.05F WCI  31
TWIN FALLS     CLOUDY    38  31  76 S10       30.04F WCI  31
$$

IDZ019>023-201400-
SOUTHEAST IDAHO


CITY           SKY/WX    TMP DP  RH WIND       PRES   REMARKS
IDAHO FALLS    CLOUDY    34  33  96 S6        30.06S WCI  29
POCATELLO      CLOUDY    36  33  89 SW7       30.06S WCI  30
REXBURG        CLOUDY    33  32  96 SW8       30.06R WCI  26
$$

IDZ006-010-011-018-031-032-201400-
CENTRAL IDAHO MOUNTAINS


CITY           SKY/WX    TMP DP  RH WIND       PRES   REMARKS
MCCALL         LGT SNOW  31  30  96 SE7       29.94F FOG     WCI  24
HAILEY         CLOUDY    28  27  93 CALM      30.05F
STANLEY          N/A     22  16  78 CALM      29.98F
SALMON         CLOUDY    27  27 100 CALM      30.00F VSB 1/4
CHALLIS        MOCLDY    24  22  91 NE3       29.99F
$$

IDZ002-004-006-007-026-201400-
NORTHERN IDAHO


CITY           SKY/WX    TMP DP  RH WIND       PRES   REMARKS
LEWISTON       LGT RAIN  37  35  92 NE6       29.94F WCI  32
LOWELL           N/A     36  34  92 N5        30.02F WCI  32
COEUR D`ALENE  CLOUDY    34  30  86 E6        29.91F WCI  29
MULLAN PASS    CLOUDY    25  23  92 VRB5      29.86F WCI  19
$$


USA.gov is the U.S. government's official web portal to all federal, state and local government web resources and services.